User: anonymous   Login
Location: Caltech
(34.1382°N, 118.1253°W)
Time: 19:36:41
(UTC-07:00)
Language:

Cosmos 1508 Rocket - Orbit

View from above orbital plane
View from above orbital plane
View from above satellite
View from above satellite

Ground track
Ground track

The orbit data is extracted from the following two-line orbital elements,

1 14484U 83111B   15183.79488556  .00224120  19097-4  38615-3 0  9992
2 14484 082.8141 308.2501 0052515 299.0301 219.9472 15.99601071631652
Epoch (UTC): 02 July 2015 19:04:38
Eccentricity: 0.0052515
inclination: 82.8141°
perigee height: 240 km
apogee height: 310 km
right ascension of ascending node: 308.2501°
argument of perigee: 299.0301°
revolutions per day: 15.99601071
mean anomaly at epoch: 219.9472°
orbit number at epoch: 63165

The dashed part of the orbit path shows where the satellite is in the earth's shadow,  

DLR